Regional Weather Roundup
Issued by NWS Northern Indiana

Home | Current Version | Previous Version | Text Only | Print | Product List | Glossary Off
Versions: 1 2 3 4 5 6 7 8 9 10 11 12 13 14 15 16 17 18 19 20 21 22 23 24 25 26 27 28 29 30 31 32 33 34 35 36 37 38 39 40 41 42 43 44 45 46 47 48 49 50

000
ASUS43 KIWX 212000
RWRIWX

KIWX WEATHER ROUNDUP
NATIONAL WEATHER SERVICE NORTHERN INDIANA
400 PM EDT THU MAY 21 2015

NOTE: "FAIR" INDICATES FEW OR NO CLOUDS BELOW 12,000 FEET WITH NO
SIGNIFICANT WEATHER AND/OR OBSTRUCTIONS TO VISIBILITY.

* THESE STATIONS ARE NOT UNDER NWS QUALITY CONTROL. THEY ALSO MAY NOT
  REPORT WEATHER SUCH AS PRECIPITATION OR FOG.

INZ001>027-212100-
NORTHERN INDIANA

CITY           SKY/WX    TMP DP  RH WIND       PRES   REMARKS
GARY*          MOSUNNY   68  37  32 W12G23    30.06F
SOUTH BEND     SUNNY     63  32  31 NW16G22   30.06F
GOSHEN         MOSUNNY   60  43  53 W12G26    30.04S
ANGOLA*        MOSUNNY   61  52  72 NW12      30.03S
FORT WAYNE     MOSUNNY   59  38  45 W10G23    30.06F

$$
INZ028>050-212100-
CENTRAL INDIANA

CITY           SKY/WX    TMP DP  RH WIND       PRES   REMARKS
LAFAYETTE      MOSUNNY   62  38  40 W9G25     30.09S
KOKOMO*        MOSUNNY   63  39  42 NW8       30.09R
MUNCIE*        PTSUNNY   58  42  55 NW12      30.09R
INDIANAPOLIS   PTSUNNY   58  39  49 VRB5      30.10S

$$
MIZ043>046-050>051-056>058-064>065-071>073-077>080-212100-
SOUTHWEST LOWER MICHIGAN

CITY           SKY/WX    TMP DP  RH WIND       PRES   REMARKS
BATTLE CREEK   PTSUNNY   62  39  42 NW12      30.01S
BENTON HARBOR  SUNNY     58  39  49 SW13      30.05S
COLDWATER*     CLOUDY    61  38  43 W10G18    30.02R
HILLSDALE*     PTSUNNY   61  38  42 W13G18    30.01S
HOLLAND        SUNNY     60  41  49 W16       30.04R
GRAND RAPIDS   MOSUNNY   62  33  33 SW17      29.99S
KALAMAZOO      MOSUNNY   62  37  39 W14       30.03R
STURGIS*       PTSUNNY   61  39  44 W9G18     30.02F
THREE RIVERS*  FAIR      62  40  45 NW14G20   30.03S

$$
OHZ001>008-015>018-024>025-212100-
NORTHWEST OHIO

CITY           SKY/WX    TMP DP  RH WIND       PRES   REMARKS
DEFIANCE       PTSUNNY   59  38  45 VRB5      30.03S
FINDLAY        CLOUDY    59  32  36 W12G22    30.02R
TOLEDO EXPRESS PTSUNNY   62  35  36 NW12G23   30.00S
TOLEDO METCALF PTSUNNY   61  34  36 W12       30.01R
LIMA           CLOUDY    56  36  47 W16       30.05R

$$
AND FOR LAKE MICHIGAN COASTAL AND OPEN LAKE BUOY OBSERVATIONS

STATION/POSITION TEMP    WIND        PRES    VSBY  WAVE
                 AIR SEA DIR/SP/G                  HT/PER
                 (F)     (DEG/KT/KT) (MB)    (MI)  (FT/S)
CALUMET HARBOR    65     290/  6/ 15   N/A
MICHIGAN CITY     53     210/  7/  8   N/A
BURNS HARBOR      61      40/  2/  3 1018.6S
SAINT JOSEPH      51     190/ 12/ 14 1018.3F
SOUTH LAKE BUOY   43 38  190/ 12/ 14 1017.1F         1
4 MI NW BRIDGMAN  52 53  260/ 10/ 12   N/A           2/ 3
MICHIGAN CITY     53 51  200/  4/  6   N/A           1/ 3

$$
&&



USA.gov is the U.S. government's official web portal to all federal, state and local government web resources and services.